Location: Les Chemineaux
(47.3024°N, 1.5104°E)
Time: 05:44:41
(UTC+00:00)

SL-16 R/B - Pass Details

Date: 19 May 2025
Orbit: 841 x 844 km, 71.0° (Epoch: 13 June)

Event Time Altitude Azimuth Distance (km) Brightness Sun altitude
Rises 20:56:50 0° 339° (NNW) 3,414 6.8 -12.2°
Reaches altitude 10° 21:00:28 10° 2° (N) 2,476 5.3 -12.6°
Maximum altitude 21:03:39 15° 36° (NE) 2,139 4.5 -13.0°
Drops below altitude 10° 21:06:48 10° 71° (ENE) 2,470 4.4 -13.3°
Enters shadow 21:09:24 - 89° (E) 3,103 4.8 -13.6°
